Theta_e
346 348 349 349 350 351 352 353 352 352 353 353 353 354 354 354 354 354 356 357 356 354 354 353 352 352 353 352 351 354 356 358 358 361 361 360 363 364 365 365 366 367 368 368 367 367 367 367 367 367 366 365 364 363 364 364 365 360 360 361 355 351 350 350 349 346 343 339 343 339 345 349 351 349 344 345 347 348 352 352 353 353 355 355 358
346 346 348 349 349 350 351 351 352 350 352 353 352 353 354 355 355 355 357 358 357 356 356 355 355 354 352 352 353 354 355 355 356 360 360 362 364 365 365 366 367 367 367 369 368 368 367 366 366 366 366 365 366 366 366 364 363 360 359 354 356 351 349 346 345 344 339 333 332 334 337 345 348 344 342 342 346 348 350 352 354 349 348 351 355
344 345 347 347 349 349 350 350 351 352 352 352 353 354 355 355 355 357 357 357 357 358 358 356 357 358 356 356 355 355 360 360 359 360 362 362 363 365 365 366 367 367 368 368 367 368 367 366 366 366 366 366 365 364 363 361 360 360 359 353 351 352 349 349 347 344 334 338 341 335 331 331 341 342 342 342 344 346 348 348 350 348 350 354 356
342 343 344 346 348 349 349 349 351 352 352 353 353 354 354 355 356 357 358 358 359 359 358 359 360 360 361 361 360 360 359 361 363 363 363 363 362 365 365 366 367 366 367 367 368 368 367 367 366 366 366 367 365 363 362 359 361 359 357 356 354 347 345 347 349 346 342 338 330 332 333 330 327 333 338 342 343 345 345 345 350 350 353 359 354
342 343 344 345 346 347 349 350 351 351 351 352 353 353 354 355 357 357 357 359 360 360 359 359 359 359 358 359 360 360 361 360 359 357 360 362 362 363 364 366 366 366 366 367 367 368 368 367 366 367 366 367 366 364 363 360 361 360 359 357 354 347 343 344 348 346 345 345 336 335 331 328 327 333 332 339 341 340 342 344 351 350 353 355 350
343 343 344 345 346 348 350 350 351 351 352 353 354 355 356 356 358 359 359 360 359 360 360 359 357 355 354 352 350 351 351 353 352 354 356 358 358 361 364 365 365 366 366 367 367 367 368 368 368 367 367 366 365 363 363 361 360 359 359 357 354 353 348 344 343 349 347 347 346 343 343 334 332 336 335 329 344 343 346 347 348 347 354 351 354
343 344 345 344 346 347 349 350 351 351 353 355 356 356 357 357 359 359 359 359 360 360 360 359 357 357 356 354 353 352 351 354 357 358 359 361 362 362 363 364 366 365 365 367 367 368 368 369 368 368 367 367 366 364 361 360 359 360 359 356 354 354 350 344 341 343 348 349 346 344 344 344 341 337 332 336 332 340 341 342 344 346 347 350 348
341 342 344 345 346 346 347 350 351 350 353 355 355 356 357 358 359 359 359 359 360 360 360 359 357 357 357 357 356 355 354 356 359 360 362 363 362 362 363 364 366 366 365 368 368 368 369 369 369 368 367 366 364 363 361 361 361 360 359 358 357 354 350 345 341 341 339 343 347 345 345 346 345 343 343 336 334 332 336 339 341 341 344 342 346
341 341 342 344 345 346 348 349 351 352 353 353 355 356 357 358 359 360 359 360 360 360 359 358 359 359 358 357 356 357 358 358 360 360 360 361 360 362 364 364 367 368 367 367 369 368 368 369 369 368 367 366 363 362 362 362 361 358 356 354 353 353 351 349 345 344 341 340 344 344 343 343 343 342 344 343 337 332 331 334 336 339 340 341 342
342 342 343 344 345 346 348 350 351 351 353 355 356 356 357 358 358 359 358 359 360 360 360 360 359 360 358 357 356 356 358 358 358 358 359 361 359 361 363 364 364 366 367 368 369 369 369 369 368 367 367 364 362 362 362 361 360 359 357 355 354 352 352 350 346 346 345 344 344 345 341 340 341 340 339 338 339 341 332 332 333 334 332 336 344
341 342 343 345 346 347 348 347 350 351 352 353 354 355 356 356 358 358 358 359 360 359 360 359 359 359 358 358 357 357 358 357 356 357 358 359 358 360 361 362 364 364 365 367 367 368 369 369 367 367 367 366 362 362 361 361 359 358 356 356 354 352 351 350 349 349 348 348 345 344 341 339 339 337 338 337 337 336 333 331 332 333 331 332 342
340 341 342 344 345 346 347 347 348 349 351 351 352 353 354 356 356 357 358 359 358 359 359 359 359 359 359 358 357 357 358 356 356 355 358 358 358 359 361 362 364 364 366 364 366 365 368 367 368 367 366 363 361 362 362 363 361 358 356 354 353 352 353 351 350 348 346 346 344 341 342 341 341 338 338 341 338 337 335 334 333 337 335 333 341
340 341 342 342 343 344 344 346 348 348 349 350 350 351 353 355 356 356 357 358 358 358 358 359 359 359 358 358 358 359 358 358 357 357 359 358 358 359 361 360 362 362 363 363 364 365 366 366 365 363 362 362 362 362 362 364 362 358 357 354 353 352 350 351 348 348 346 343 340 340 341 341 340 342 340 337 339 340 337 334 333 335 332 334 341
339 340 341 342 343 344 345 346 347 348 348 348 350 351 352 353 356 355 356 358 358 358 358 358 359 359 360 359 358 359 358 358 358 357 359 359 360 359 360 359 361 361 362 363 365 366 366 366 366 365 365 364 362 363 363 364 362 358 357 354 352 353 352 351 350 348 349 347 346 344 342 341 341 341 341 340 337 336 335 333 337 336 335 332 340
340 340 340 341 344 345 344 346 347 347 347 347 348 350 353 353 355 355 356 358 358 358 358 357 358 359 360 360 359 359 357 357 357 358 359 359 360 360 361 361 361 362 363 366 368 367 367 367 367 366 364 363 362 362 362 363 361 359 357 355 353 354 352 350 349 348 347 347 347 347 344 342 343 343 341 341 341 339 338 338 336 332 330 331 332
339 340 340 342 344 346 345 345 346 347 348 347 348 351 351 352 355 356 356 357 357 358 357 358 358 359 360 360 359 359 359 359 359 360 361 361 361 360 361 363 362 363 366 367 367 367 367 366 366 364 364 362 362 362 363 361 360 357 356 355 353 353 351 351 350 349 347 348 347 347 348 341 346 344 344 342 342 342 342 341 339 336 330 327 331
338 338 339 342 343 345 345 345 345 346 346 347 349 350 351 353 353 354 356 357 357 358 357 358 359 359 359 360 359 359 358 358 357 358 356 360 361 361 360 361 363 364 364 366 366 367 367 367 366 364 363 362 362 362 362 362 360 357 356 354 353 351 351 351 350 349 349 346 347 348 346 345 347 349 347 345 347 348 345 344 341 337 336 330 329
338 340 341 343 343 344 344 344 345 345 345 347 350 350 352 353 352 353 355 355 357 357 357 358 358 358 359 359 360 360 358 357 358 358 359 359 360 361 360 360 361 362 362 364 365 366 366 366 366 365 363 362 362 361 362 362 360 357 356 355 353 353 351 351 351 349 349 349 347 347 346 344 348 348 345 345 348 348 345 344 343 342 342 334 333
336 338 340 340 341 343 344 343 344 345 347 349 349 349 350 351 353 352 353 354 356 356 357 358 359 358 358 359 360 360 359 359 359 360 361 360 358 358 358 359 361 362 363 364 364 364 365 365 365 364 363 361 362 361 362 361 359 357 355 353 353 352 351 350 351 349 348 348 347 345 348 345 348 345 345 344 348 347 346 345 345 345 343 340 339
334 335 337 339 340 341 342 343 343 344 345 346 346 347 346 348 351 352 353 356 356 356 357 357 358 358 358 360 360 361 361 360 360 361 359 359 358 358 359 358 360 361 361 363 363 362 363 363 363 361 361 361 362 360 360 361 359 357 355 353 352 351 349 350 349 349 347 348 347 346 348 347 348 347 346 345 346 347 347 344 345 344 344 343 342
332 334 336 337 339 340 341 343 343 344 345 345 344 345 346 347 348 350 352 353 353 354 356 357 357 357 359 359 359 360 360 360 360 361 360 360 360 360 359 359 361 360 361 361 361 362 364 363 362 362 361 362 362 361 362 360 358 357 356 355 353 351 349 349 350 349 348 348 347 346 347 347 350 347 346 345 344 346 347 344 346 344 342 344 342
333 333 334 336 338 339 340 342 344 343 342 343 343 344 345 345 346 348 349 351 351 353 355 356 357 357 358 358 358 359 359 359 359 359 359 359 360 360 360 361 360 361 361 360 361 362 363 363 362 363 363 364 365 364 361 360 358 356 356 354 353 351 350 350 349 349 349 347 348 347 346 347 349 346 346 345 344 343 344 341 343 342 341 343 344
331 332 331 333 337 339 339 342 343 343 343 342 343 342 344 345 346 347 348 349 350 352 354 357 357 358 358 358 358 358 359 359 358 358 358 357 359 360 360 359 359 359 361 361 361 361 363 364 363 363 364 364 364 363 362 360 358 357 355 354 353 351 350 349 348 348 349 348 347 347 345 347 347 345 346 345 344 345 343 342 342 342 341 341 344
334 333 331 334 336 339 342 343 343 343 345 343 343 343 343 344 345 346 347 348 350 352 354 356 356 356 358 358 358 358 358 357 356 357 357 357 357 359 360 359 358 358 359 361 362 362 363 364 362 362 363 363 363 363 362 360 358 357 356 355 353 352 351 350 349 349 348 348 347 346 345 346 346 344 345 345 345 345 345 344 343 345 344 343 345
335 336 335 335 334 337 339 340 342 343 343 344 344 343 343 344 345 345 346 348 350 352 353 354 354 354 355 357 357 357 357 356 356 356 356 357 357 357 358 358 358 358 359 360 361 362 363 363 361 361 362 362 362 362 361 359 358 358 357 356 354 353 352 351 351 350 349 349 347 347 346 346 346 344 345 344 344 345 344 344 343 344 343 343 344
337 339 339 336 337 339 339 341 342 343 342 343 344 344 343 344 345 345 346 348 349 351 352 353 353 353 355 357 357 357 356 356 356 356 356 357 357 358 358 358 358 357 358 358 359 360 361 362 362 362 362 363 363 362 362 360 358 357 356 356 355 354 352 352 351 351 350 349 348 347 347 347 346 344 344 344 345 345 344 343 342 343 344 344 344
333 338 340 343 342 340 339 341 341 340 343 343 343 344 343 346 346 345 346 348 350 352 353 352 352 352 355 357 357 356 356 356 357 357 357 357 357 357 357 357 358 357 357 357 357 359 360 361 361 362 361 362 362 362 361 361 359 358 356 355 354 353 352 352 351 350 349 349 348 347 348 347 346 345 344 345 345 344 343 343 343 344 344 344 342
333 336 338 340 343 343 341 341 342 341 343 342 344 344 345 346 345 345 346 348 350 352 353 352 352 352 356 357 358 358 357 358 358 359 359 358 358 358 358 359 359 357 356 356 356 357 359 360 360 361 362 362 362 361 361 361 360 358 356 355 354 353 352 351 351 350 349 348 347 347 346 347 347 347 346 347 347 345 344 342 344 344 344 343 341
329 335 338 339 340 343 343 342 342 341 342 342 342 344 346 347 348 348 346 348 350 352 352 352 353 353 356 358 358 359 359 359 359 360 359 359 358 359 359 359 360 359 358 357 358 358 358 359 359 360 361 361 360 360 360 360 359 358 357 354 354 353 352 351 351 349 349 348 348 347 347 347 348 344 342 342 344 342 345 342 344 345 344 343 343
328 334 334 339 340 342 345 345 345 342 342 341 343 344 344 345 346 347 348 348 353 354 354 352 353 356 357 358 359 360 360 360 360 360 360 360 359 359 359 359 360 359 359 359 359 358 358 358 358 359 360 359 359 360 348 336 341 357 357 355 354 354 353 352 351 349 348 348 347 347 347 342 340 340 339 339 337 337 338 342 346 345 344 343 342
331 334 333 336 339 341 344 345 346 345 344 342 342 345 345 343 346 345 348 350 350 351 354 354 354 356 357 358 359 359 359 359 359 359 360 360 360 360 360 360 360 360 359 360 359 358 357 357 357 357 358 358 358 357 335 330 332 336 352 356 354 354 353 352 351 350 349 348 348 348 349 345 342 340 343 340 340 337 336 336 337 341 341 345 343
329 330 331 334 335 338 341 342 342 343 344 344 343 344 344 343 346 347 347 348 349 352 352 355 354 356 358 358 357 358 358 358 359 359 360 360 360 360 360 360 359 359 360 360 359 359 359 358 357 357 357 357 358 340 329 328 330 330 336 355 355 354 353 351 351 350 350 349 348 347 347 347 345 345 346 345 341 337 334 334 334 334 335 336 337
333 332 332 330 331 334 341 341 342 343 343 342 344 342 346 345 347 349 350 350 351 352 353 354 356 357 357 358 359 358 358 358 359 359 360 360 360 360 359 359 358 360 361 360 359 358 358 359 358 357 356 357 357 336 328 326 328 327 328 339 355 355 353 351 351 350 350 350 350 348 346 346 346 342 345 346 346 344 334 331 332 333 333 332 330
331 333 333 334 334 334 337 342 345 345 342 346 346 345 347 349 349 353 352 351 350 351 353 354 357 357 358 358 359 358 357 358 359 359 359 359 359 358 359 360 359 360 359 359 359 359 359 359 358 358 358 358 358 335 325 324 325 325 326 333 354 354 354 352 351 351 351 351 351 348 346 345 346 347 347 346 347 346 346 345 342 342 341 339 332
342 343 341 341 339 338 339 341 340 340 345 347 346 345 347 350 353 352 353 352 352 353 354 355 356 357 358 358 358 358 358 359 359 359 359 358 358 359 359 359 358 358 357 357 357 357 358 358 358 357 357 357 357 329 323 322 321 321 324 328 352 354 354 353 352 352 353 352 352 349 348 346 347 347 347 345 346 345 345 344 344 343 343 343 343
344 345 346 347 345 341 338 339 341 340 341 343 344 345 344 349 352 351 353 354 354 353 353 355 355 356 357 358 358 358 359 359 359 359 358 357 358 358 358 359 358 357 358 358 359 359 357 357 358 357 356 356 357 326 322 321 320 320 322 338 349 353 353 352 352 353 353 354 352 350 348 348 348 347 338 332 340 347 346 343 342 342 343 344 344
344 344 344 347 349 348 343 342 342 341 341 343 344 345 347 349 349 350 353 353 353 353 353 354 354 355 356 357 357 357 358 358 359 358 357 357 358 358 359 360 358 357 357 357 357 357 358 358 357 356 356 355 356 334 320 318 318 318 323 343 348 351 352 351 352 353 353 353 351 350 349 348 348 348 336 326 330 339 346 342 341 341 342 342 343
342 344 346 348 349 347 345 341 342 343 346 350 349 348 352 354 352 353 352 351 351 351 353 355 354 357 357 357 358 357 357 357 358 357 357 358 358 359 359 360 357 356 355 356 357 357 357 357 357 356 356 355 356 336 316 316 317 316 326 345 348 350 351 350 351 352 352 352 350 342 346 349 349 348 327 324 325 337 344 342 341 340 340 340 342
342 342 344 346 349 348 343 346 346 346 350 353 353 352 350 351 351 351 350 349 350 352 353 354 355 357 357 358 358 357 357 357 357 358 358 358 358 359 360 361 358 358 357 358 357 356 357 359 357 357 343 352 356 337 315 317 316 315 327 348 350 351 349 350 350 350 351 349 350 343 338 343 345 341 321 322 322 332 344 342 341 340 338 338 340
342 343 345 348 351 352 351 350 348 351 352 354 353 350 349 351 352 350 348 349 351 353 356 357 356 357 358 358 357 358 359 358 358 359 360 359 361 360 359 359 358 357 356 356 356 357 356 356 357 357 357 355 356 356 330 315 315 314 319 347 352 350 348 349 350 349 348 346 347 347 340 327 327 324 319 318 317 321 342 344 343 340 339 338 342
339 340 343 346 346 346 345 345 347 351 350 351 352 350 350 353 353 351 350 351 355 356 357 357 358 357 357 358 359 359 358 358 359 359 360 360 359 358 359 359 357 357 358 357 357 356 355 355 356 357 358 357 357 358 337 313 314 314 316 329 351 351 351 350 350 348 346 344 344 345 346 328 320 319 317 314 314 315 327 344 344 342 342 343 339
339 339 341 343 344 344 345 345 348 350 351 350 351 352 353 353 352 352 354 355 357 358 358 358 358 357 356 357 357 359 360 359 361 361 360 360 360 360 359 359 358 358 358 357 357 356 356 356 357 357 358 358 350 340 345 316 315 312 315 320 346 352 351 351 349 350 347 346 345 345 345 331 318 317 315 313 311 313 319 344 347 327 325 325 344
337 339 340 341 341 341 341 342 344 347 351 354 350 352 353 352 353 357 358 356 356 356 357 357 358 357 357 358 359 360 360 360 361 362 361 360 360 360 360 361 359 358 357 356 356 356 355 355 356 357 358 359 360 352 328 326 313 312 312 316 327 341 333 352 351 348 347 346 347 347 344 323 316 313 312 311 310 311 317 337 322 319 317 322 334
336 337 339 340 340 339 338 340 342 343 346 351 357 354 353 353 351 352 356 362 358 357 358 357 357 357 357 358 359 360 360 361 362 363 361 361 361 361 361 360 359 358 356 355 355 355 354 353 353 354 357 358 360 358 329 320 320 312 312 314 318 326 328 347 352 350 349 348 347 346 339 315 311 308 309 310 310 313 328 318 313 315 318 324 339
336 336 338 339 338 337 337 337 339 341 343 345 349 350 348 345 345 349 352 355 359 360 358 357 356 356 357 358 359 360 361 362 362 362 361 360 361 362 359 360 359 358 356 355 354 355 354 353 353 352 354 357 357 357 344 324 317 313 313 313 316 320 322 326 347 350 349 348 333 324 315 310 311 309 309 310 310 312 316 314 312 315 323 337 339
337 337 337 337 337 337 336 336 337 339 340 341 342 344 342 342 346 348 350 352 357 360 358 357 357 357 357 357 356 356 359 361 361 361 360 361 360 359 358 359 357 355 356 355 355 354 353 353 352 353 354 355 355 356 349 337 323 317 316 314 316 319 321 323 335 345 332 328 320 316 313 312 312 314 320 325 330 328 316 315 315 320 336 337 338
335 337 338 338 338 337 336 336 335 338 340 340 340 340 341 343 345 347 350 352 355 356 357 358 357 357 358 358 357 355 355 357 359 359 359 360 360 359 359 357 357 355 355 354 354 353 353 352 352 353 354 356 354 354 349 341 333 329 328 325 322 325 319 321 337 342 327 329 322 323 323 318 319 316 323 324 325 319 320 323 328 332 335 337 337
337 338 338 338 337 336 336 336 336 338 339 339 340 341 342 343 344 346 348 348 349 351 353 354 356 357 357 357 356 354 354 353 355 357 356 357 358 358 357 356 356 355 354 354 354 352 352 352 352 354 355 356 354 352 350 342 338 335 332 331 329 331 332 336 341 339 336 332 328 318 316 323 322 326 329 330 328 328 329 330 333 333 333 334 335
336 336 336 335 335 335 335 335 335 338 339 338 339 340 342 343 343 345 346 345 346 347 349 350 349 350 349 351 354 356 355 354 354 356 355 357 356 357 357 357 360 361 360 357 355 355 354 356 355 353 354 354 352 348 349 332 341 325 332 334 331 332 335 338 331 323 331 328 325 325 326 326 327 328 329 329 328 328 328 329 329 329 331 331 331
336 336 336 336 336 336 335 335 336 338 339 338 339 340 340 341 342 343 343 342 343 343 343 344 345 345 344 343 343 344 344 344 346 346 348 350 342 325 336 353 357 340 329 326 327 354 358 358 356 357 358 354 352 351 331 318 316 314 315 317 319 318 318 330 318 317 324 325 326 326 326 328 329 329 329 328 327 326 324 323 323 322 328 330 329
336 336 336 336 336 337 337 336 337 339 339 339 339 340 341 341 342 342 342 341 341 340 339 339 339 340 340 345 345 344 343 343 342 342 342 342 344 347 323 316 316 318 316 310 307 306 308 316 345 358 353 333 333 329 315 312 312 311 311 311 312 312 312 309 309 322 328 328 327 327 327 328 329 330 329 328 326 324 323 322 322 324 329 329 328
Wind_Speed
14 16 17 18 18 16 14 13 14 17 15 17 17 16 16 14 15 16 14 14 13 13 12 12 12 12 11 11 10 9 9 9 8 7 7 6 7 7 7 6 7 7 7 7 6 6 5 5 4 4 4 4 5 5 4 3 2 2 2 2 2 2 3 2 1 1 1 1 1 1 1 0 1 1 2 1 1 0 0 1 1 1 1 1 2
14 14 17 17 15 17 15 14 16 18 18 18 18 18 18 17 16 14 14 14 13 13 11 11 11 11 10 10 9 8 9 10 9 7 7 6 7 7 7 7 7 7 6 7 6 6 5 5 5 5 5 5 5 4 3 2 3 3 3 2 1 3 2 2 2 2 1 2 2 1 1 2 1 1 2 1 2 1 1 1 1 1 2 2 2
15 17 18 17 19 19 16 17 17 18 18 19 19 17 17 16 16 14 13 14 14 13 11 11 11 10 10 9 9 7 7 7 7 6 6 7 7 8 8 7 8 7 7 6 6 6 6 6 5 5 5 5 4 5 4 5 4 4 4 4 3 2 2 2 3 3 1 1 1 1 2 3 3 1 2 1 1 1 1 1 1 2 3 2 2
18 18 19 18 18 17 17 17 17 17 17 17 17 18 16 16 16 16 14 14 13 14 13 12 11 11 10 7 8 7 6 6 6 6 8 8 8 8 7 8 8 7 7 7 6 6 7 7 6 5 5 5 5 5 5 6 5 5 5 4 4 3 4 3 3 2 1 2 2 1 1 2 2 3 3 1 1 1 2 1 1 1 3 2 1
17 18 18 19 20 20 19 18 17 18 18 18 17 16 13 18 18 18 15 15 13 14 16 13 11 10 10 10 8 7 6 6 6 8 9 8 7 8 8 8 8 7 7 7 7 7 7 7 6 6 5 5 5 5 6 7 6 6 5 4 6 5 4 2 3 2 2 1 1 2 2 3 2 2 4 1 1 3 2 1 2 1 2 1 1
16 19 20 19 18 17 17 18 19 18 18 18 17 17 16 15 17 18 15 13 13 15 17 14 11 14 12 11 12 11 10 10 10 10 9 9 9 7 7 8 8 8 7 7 8 7 7 7 7 6 6 5 5 5 6 5 6 6 5 5 6 6 4 2 2 3 2 2 2 2 3 3 1 1 3 3 1 1 0 1 0 1 1 0 1
16 16 16 18 19 19 19 19 20 19 18 16 16 17 18 16 16 16 14 13 14 15 18 12 15 12 14 14 12 12 11 9 8 9 8 7 7 8 7 7 8 8 8 8 7 8 7 7 7 7 6 5 5 5 7 7 6 6 5 5 5 4 4 3 4 3 3 2 2 2 2 3 2 3 3 1 3 2 2 2 2 1 1 2 2
17 19 19 19 19 21 22 22 20 21 18 17 16 16 18 17 16 17 14 13 13 14 17 16 15 14 14 13 11 11 12 9 10 8 7 7 8 9 7 7 8 8 8 8 8 8 7 7 7 7 6 6 6 7 8 7 4 4 5 5 4 4 5 4 3 3 4 3 3 3 3 1 2 4 3 4 3 2 4 3 3 3 3 3 3
18 18 20 21 21 22 21 20 21 20 17 17 17 17 16 16 16 16 15 14 14 16 17 19 15 14 14 12 11 10 10 8 7 7 7 8 9 8 8 7 7 8 8 8 8 9 8 8 8 7 7 7 7 8 8 6 7 6 6 5 5 4 4 4 3 3 5 4 4 3 2 1 2 2 2 2 3 3 3 5 4 2 3 3 3
17 19 19 20 20 20 21 19 18 19 18 17 16 15 15 14 15 16 17 14 14 17 18 18 19 13 12 13 14 11 9 8 8 9 9 8 10 10 8 7 7 7 8 8 8 9 9 8 8 8 8 7 8 8 8 7 6 7 7 7 6 6 4 4 5 4 4 3 4 3 3 2 2 2 3 3 1 3 2 4 4 5 5 3 3
17 18 19 19 19 19 18 20 20 19 17 17 16 15 15 15 16 17 18 14 15 17 17 18 20 15 14 15 16 14 13 11 10 10 9 10 10 11 10 9 7 7 7 8 9 9 9 9 8 8 7 7 8 9 9 7 7 7 7 7 7 7 5 5 5 4 3 3 4 4 4 4 3 4 4 4 3 3 3 4 4 5 4 3 3
19 17 18 19 18 18 18 19 19 20 18 17 17 16 15 15 15 17 17 17 18 17 17 17 16 16 15 15 15 14 13 12 13 13 12 12 12 10 9 8 8 8 8 8 9 10 9 8 8 8 8 9 9 9 9 7 6 6 6 6 6 6 5 5 5 5 5 4 5 5 5 4 3 3 3 3 3 3 3 4 3 1 3 5 1
19 19 18 17 18 19 20 21 19 18 18 19 19 18 16 16 17 18 18 17 16 17 19 18 17 16 16 16 15 13 13 13 13 12 12 11 11 10 10 9 8 8 9 10 10 11 9 8 8 9 10 9 10 9 10 8 6 6 6 7 7 7 6 7 6 6 6 5 5 5 5 4 4 3 2 3 2 1 3 4 3 2 4 4 2
20 20 19 19 18 19 20 20 19 17 20 19 20 18 16 15 17 19 19 18 17 17 18 18 18 17 16 15 14 12 14 13 12 12 12 10 10 11 11 11 10 11 10 11 10 10 9 9 9 10 10 10 10 11 10 8 7 6 7 7 8 7 6 8 7 7 6 6 5 4 6 5 5 4 4 3 4 3 4 4 2 2 3 4 1
19 18 19 20 19 20 19 19 18 18 20 20 18 18 16 16 17 19 18 18 18 18 17 19 17 17 15 15 14 12 13 12 12 11 11 12 11 11 10 10 10 10 10 9 10 10 10 9 9 9 9 11 11 10 10 8 7 7 6 7 7 6 7 7 6 7 6 7 6 5 5 5 5 4 4 4 3 4 4 3 4 4 4 3 3
19 19 20 20 19 19 18 17 18 18 20 19 20 17 17 18 18 19 20 19 19 19 18 18 17 15 17 16 16 14 12 12 11 10 11 12 12 11 11 11 10 9 9 9 10 10 10 10 10 10 10 11 11 11 10 8 8 8 7 7 8 5 6 8 6 7 7 8 8 6 5 6 5 5 5 4 4 4 3 3 4 5 4 4 3
18 20 20 21 19 18 18 19 18 19 19 20 19 19 20 18 17 19 19 17 19 19 19 17 17 16 17 17 16 15 15 15 14 15 15 12 11 11 11 11 10 9 9 9 9 10 10 10 10 10 11 12 12 12 11 8 8 8 8 8 8 7 7 8 7 7 7 8 7 8 6 6 5 5 5 5 4 4 4 4 5 5 5 5 4
21 21 20 19 20 21 20 19 21 21 23 22 20 19 18 18 19 20 19 20 19 19 19 18 17 17 16 17 17 17 16 17 15 14 14 12 12 10 11 10 12 11 9 9 10 11 10 11 10 10 10 12 12 12 11 9 9 8 8 8 8 7 7 6 6 7 7 6 7 6 6 6 5 5 6 6 5 5 5 5 5 5 5 6 5
16 19 17 18 19 20 21 23 24 22 21 20 20 19 17 18 19 20 21 22 22 18 18 15 16 14 14 17 18 17 16 15 14 14 13 13 14 13 13 13 11 11 10 10 10 11 10 10 11 11 10 12 12 12 10 9 9 8 8 8 8 8 7 7 7 7 7 6 7 8 6 6 5 6 6 5 5 5 5 4 5 4 5 6 5
16 17 18 20 22 24 24 23 23 23 21 20 21 19 22 21 20 19 19 17 17 17 17 18 18 17 15 15 16 15 15 15 14 14 13 14 14 14 14 14 13 11 11 12 11 12 12 12 11 12 12 12 12 13 11 10 9 9 8 8 8 9 9 8 8 7 6 7 8 8 7 6 5 5 5 5 5 5 5 5 5 5 5 6 5
16 17 18 20 22 23 23 23 22 21 18 19 19 21 22 20 20 22 20 20 21 20 19 17 16 17 17 18 17 16 17 15 15 15 14 14 14 14 14 13 11 12 12 12 13 13 12 12 13 12 13 12 12 13 10 9 9 9 9 9 9 10 10 8 8 8 8 7 8 8 8 8 6 6 6 6 6 6 6 5 5 5 5 5 6
16 16 17 18 19 20 21 19 17 17 18 20 19 18 20 21 21 21 21 19 21 20 18 17 17 17 19 18 18 17 17 16 17 16 16 15 14 13 13 12 13 13 13 13 14 13 12 13 13 13 13 12 12 11 11 10 10 10 10 8 9 10 11 10 9 9 9 7 8 8 8 8 7 8 7 7 7 7 7 7 6 6 6 6 6
12 14 15 16 16 17 17 17 18 19 18 20 19 18 20 22 21 19 21 22 22 21 19 17 17 17 19 18 18 17 17 18 19 17 18 17 16 15 14 14 14 13 13 13 14 14 13 13 13 13 13 12 12 12 11 11 11 12 12 10 10 11 12 11 11 11 10 9 9 8 9 8 6 8 8 8 8 8 8 8 8 7 7 7 7
9 10 12 12 12 12 11 14 16 18 17 18 18 18 18 19 19 20 23 24 22 19 18 17 17 18 19 18 18 18 19 20 20 17 19 19 17 15 15 15 15 14 13 13 14 14 13 13 14 14 14 13 12 12 11 12 12 12 12 12 11 11 11 12 12 12 11 10 10 9 9 9 9 9 9 8 8 8 8 8 9 8 8 8 7
7 10 11 11 12 14 15 16 17 17 15 16 16 16 18 18 19 20 21 22 20 18 18 19 20 21 20 19 20 19 19 21 21 18 20 20 19 16 15 16 15 15 15 13 13 13 13 13 14 14 15 14 13 13 13 13 12 12 12 12 12 12 12 12 12 12 11 11 11 11 10 10 10 10 10 9 9 10 9 9 9 8 8 8 7
9 9 10 13 15 14 14 15 15 15 16 17 17 17 18 17 20 20 19 19 19 18 18 18 19 20 18 20 20 19 21 22 21 20 21 20 19 17 16 15 17 17 16 15 15 14 13 15 15 15 15 14 13 13 13 13 13 13 12 12 11 12 12 12 12 11 11 11 11 12 11 11 11 12 11 11 11 12 10 10 11 9 8 8 8
7 8 8 7 8 14 17 16 14 17 16 15 16 17 18 16 18 20 18 17 17 16 17 17 19 20 18 19 20 20 20 20 19 19 18 18 19 19 18 17 17 17 17 16 16 16 14 15 15 15 15 14 14 13 13 13 13 12 13 13 12 12 12 11 11 12 12 12 12 12 12 12 13 13 13 12 12 12 10 12 11 10 9 9 9
6 7 10 12 12 13 14 15 14 14 14 15 15 17 16 16 18 18 18 17 14 16 16 16 18 18 17 18 19 18 19 18 17 17 17 18 18 18 17 16 16 18 18 17 17 17 15 15 15 15 14 13 13 13 13 13 13 12 12 12 13 12 12 11 11 12 12 12 13 13 13 14 15 14 13 13 12 10 9 10 9 9 9 9 9
5 8 9 10 12 12 13 14 14 15 16 17 15 16 16 14 14 15 17 19 17 16 17 17 17 18 17 16 16 15 15 16 17 16 17 17 17 16 16 16 15 16 15 17 17 17 16 16 15 14 14 13 13 13 12 12 13 13 12 13 13 13 12 12 12 12 12 12 12 12 13 14 15 15 17 14 12 9 8 8 8 9 9 9 9
8 8 9 10 12 11 12 12 11 14 16 17 16 16 17 18 17 17 16 17 14 14 16 17 17 17 14 14 15 14 15 16 16 16 17 17 16 16 16 16 16 16 15 15 16 16 17 16 15 15 14 13 13 12 13 18 16 13 13 12 12 12 13 12 12 11 12 13 13 12 12 17 16 17 17 16 12 12 12 10 8 9 10 10 10
8 6 6 7 9 11 10 11 13 14 17 17 17 17 15 18 15 17 17 16 16 17 16 17 17 15 14 14 14 15 15 16 17 16 16 17 17 15 15 16 16 15 16 15 15 17 16 15 16 16 16 14 13 12 17 18 19 18 14 13 12 12 13 13 12 12 12 12 12 12 11 12 13 12 13 15 14 14 13 13 11 11 12 11 10
6 5 6 7 9 11 12 14 15 16 16 14 16 15 16 18 17 16 17 16 17 16 17 17 16 13 14 15 15 15 16 17 16 17 17 17 16 16 16 16 16 17 16 15 15 16 15 15 14 16 16 15 14 15 17 19 20 20 17 13 12 12 12 12 12 12 11 11 11 11 10 8 10 12 12 12 13 13 13 14 15 14 13 15 13
4 6 7 9 9 10 12 14 14 14 15 18 16 14 16 17 15 16 14 15 16 17 16 16 14 15 16 16 15 16 17 16 17 17 16 15 17 16 16 16 18 16 15 16 16 16 16 15 15 16 16 16 15 16 19 20 21 21 21 17 12 12 12 12 13 13 12 11 10 10 9 9 9 15 13 11 11 12 13 15 15 15 15 15 15
6 6 8 8 8 9 10 12 13 14 17 14 13 14 13 11 12 10 12 15 17 17 16 16 15 16 16 16 16 17 17 18 16 16 15 16 17 18 17 15 15 15 17 17 17 17 16 17 17 16 15 14 16 15 20 21 21 22 21 19 13 13 13 13 14 13 11 11 11 10 10 10 10 11 11 12 11 11 10 10 11 12 12 14 15
5 6 5 6 8 10 11 11 12 13 9 9 12 14 12 11 10 12 13 13 14 13 12 12 13 14 13 14 15 16 16 15 15 16 15 16 17 16 17 16 16 17 18 19 20 18 18 19 18 19 17 15 15 15 21 21 21 21 21 18 14 12 11 12 12 13 11 11 12 11 11 11 11 11 11 13 13 12 10 9 11 12 13 13 13
3 5 6 6 7 8 9 10 8 9 11 13 14 13 13 12 11 12 11 12 12 12 12 11 12 13 14 14 15 14 14 14 15 15 16 17 17 17 17 15 15 16 18 19 16 16 18 21 20 21 19 18 15 16 20 21 21 20 20 13 14 13 14 12 11 12 11 10 11 11 12 12 12 13 13 15 13 11 11 11 11 11 11 12 12
5 5 7 7 8 8 9 7 7 9 10 12 11 12 11 11 12 12 12 12 12 13 14 14 15 14 14 14 15 15 14 14 15 16 18 18 17 17 16 14 15 16 17 17 17 19 19 19 20 22 20 18 18 14 20 21 20 20 15 12 12 12 16 15 12 11 10 10 11 12 13 12 12 13 14 17 16 12 10 10 10 11 10 10 10
5 6 6 7 6 5 5 6 7 8 9 8 9 10 10 10 11 11 12 12 13 15 14 13 14 14 14 15 15 15 14 15 16 18 19 18 17 15 16 15 17 18 18 19 19 17 19 20 19 21 20 19 17 14 22 22 23 23 20 14 12 13 17 16 14 12 10 10 12 15 15 13 13 13 16 18 18 14 11 10 10 11 11 10 9
4 5 7 7 6 2 2 3 4 6 6 8 9 11 11 11 11 12 13 14 15 14 14 14 13 14 15 15 15 16 16 16 18 18 17 17 17 17 15 14 15 15 16 15 16 17 18 17 18 21 21 21 19 18 24 24 26 25 20 13 12 13 17 16 15 14 13 12 12 13 17 14 14 13 18 19 18 15 12 11 11 10 10 11 10
3 4 5 6 6 6 8 7 6 4 2 5 9 10 12 10 10 11 13 14 13 9 9 10 12 14 13 12 13 14 15 16 18 16 15 16 14 14 15 15 15 14 13 13 14 15 17 17 19 21 17 20 21 14 20 26 26 25 26 16 14 15 18 17 15 13 10 10 12 12 13 16 15 15 18 19 18 17 12 11 11 11 11 11 9
4 5 6 6 7 8 8 8 5 3 1 3 6 8 9 8 9 10 11 10 9 9 10 11 11 12 12 13 13 14 17 17 15 14 14 14 13 15 15 15 17 16 16 17 20 17 16 15 14 16 16 19 18 18 18 27 26 27 28 23 17 17 18 17 16 13 14 13 13 13 12 15 17 16 18 19 18 18 14 12 12 10 10 8 8
4 5 6 7 8 10 10 10 8 6 4 4 5 6 6 6 7 8 7 4 4 6 8 9 10 11 13 14 15 15 15 14 14 13 13 14 14 14 14 16 15 15 18 21 19 18 18 15 14 16 17 18 15 18 12 24 28 29 28 30 18 18 17 18 18 15 15 13 14 12 12 14 19 17 19 19 19 17 16 10 10 9 8 12 9
4 5 6 7 9 11 11 10 9 9 7 4 6 6 6 6 6 4 3 2 4 6 8 9 9 10 11 12 13 14 13 11 12 14 15 15 14 15 15 14 15 16 17 21 21 20 19 18 16 13 15 14 13 12 16 16 24 28 29 30 27 18 21 15 16 17 17 14 13 12 12 15 20 18 19 19 17 17 14 11 12 12 13 13 10
5 5 7 9 11 10 11 11 10 10 10 9 6 7 6 7 7 4 3 2 3 7 8 9 9 10 11 11 12 13 13 12 13 12 14 14 14 14 14 14 17 16 17 19 17 18 18 18 17 14 12 12 13 13 15 22 20 26 27 31 30 25 23 18 14 13 15 15 13 14 12 19 20 19 19 17 15 14 10 14 12 14 14 12 8
6 7 8 9 10 11 11 11 11 12 11 11 9 9 10 9 5 5 4 3 3 2 6 8 9 9 9 10 10 10 11 12 11 12 13 13 14 13 13 16 16 17 19 19 18 16 16 15 16 18 17 15 15 12 10 18 26 24 25 27 28 28 23 22 15 12 11 11 14 16 18 19 19 19 17 14 13 14 15 13 14 15 13 9 11
7 8 8 9 10 11 12 12 11 11 11 11 10 10 11 7 5 5 4 4 3 2 1 4 6 7 8 9 10 11 11 11 11 11 13 12 13 14 15 14 17 18 18 18 15 13 14 16 19 19 19 20 16 12 9 12 16 21 21 24 26 26 24 23 22 14 16 17 18 18 21 19 17 14 11 9 8 8 11 13 14 14 10 11 9
7 6 7 8 9 10 11 12 11 10 9 9 10 10 9 7 8 7 6 6 5 5 4 2 1 3 4 6 7 8 8 9 11 11 12 12 12 13 14 14 15 17 16 15 18 13 15 19 19 20 18 14 15 14 9 11 12 14 12 17 19 17 20 19 15 11 13 12 16 16 14 14 12 14 12 10 9 11 9 8 7 8 9 9 8
7 6 7 9 10 10 10 11 10 9 9 9 9 9 9 8 7 7 6 6 6 6 5 5 5 2 1 3 4 3 4 7 8 10 11 12 13 15 15 17 18 18 18 16 15 18 16 18 19 18 17 13 14 17 13 12 16 14 12 10 12 13 14 12 13 10 10 13 11 12 15 12 11 10 10 9 9 9 10 11 12 12 8 8 8
9 9 9 9 10 10 10 10 10 8 9 9 10 9 9 9 8 7 7 7 7 7 6 7 6 6 6 6 3 2 3 5 7 9 10 11 12 13 15 17 16 15 15 16 18 19 19 21 17 20 17 12 11 11 13 16 16 17 16 10 10 13 15 15 15 17 14 12 12 11 11 11 11 12 12 11 11 11 10 11 11 10 9 9 7
10 10 11 12 12 12 12 12 10 8 8 9 10 10 10 10 9 8 8 8 8 8 8 7 6 5 5 4 4 4 4 3 3 4 5 6 8 9 8 8 10 11 13 16 15 16 20 19 19 17 17 20 17 17 21 20 23 25 26 27 22 14 14 15 17 23 18 13 12 11 12 14 15 14 14 13 13 12 11 10 9 9 10 10 10
11 12 13 13 13 13 13 13 11 10 11 11 11 10 10 10 10 9 9 9 9 8 7 7 6 6 4 3 3 3 2 1 1 0 1 3 5 8 10 11 10 11 12 13 14 16 19 20 16 15 16 24 24 23 21 25 27 29 31 31 30 28 23 21 24 19 16 15 15 15 14 15 16 16 15 15 13 12 11 10 10 10 10 11 12
Wind_Direction
189 189 190 191 194 194 196 192 194 200 199 198 197 195 195 189 193 195 193 191 191 192 195 196 199 203 207 209 211 210 214 219 223 220 218 217 212 210 208 215 217 219 219 216 217 219 227 233 221 215 209 211 217 231 232 238 176 208 243 235 241 210 176 167 123 247 266 260 182 256 131 84 212 270 289 270 209 186 47 84 87 104 70 61 54
185 188 193 194 195 195 195 198 198 198 201 199 198 197 196 193 194 193 191 190 192 190 191 194 198 200 199 204 206 207 207 213 216 216 217 215 207 207 213 218 219 218 218 216 218 218 222 223 219 218 206 210 217 220 205 198 199 197 232 241 204 221 198 181 138 200 188 301 306 230 174 124 82 202 239 241 205 184 164 115 79 26 62 78 81
189 192 190 194 195 195 197 202 204 204 200 201 200 195 194 196 198 192 190 191 195 190 188 193 194 196 196 196 200 204 209 208 212 210 211 213 207 209 213 216 217 220 219 215 218 217 223 225 221 215 211 207 203 209 216 231 227 206 222 258 195 186 176 134 158 249 320 89 70 274 197 202 148 162 180 221 222 208 201 133 117 86 76 78 82
189 191 193 195 196 195 198 202 202 203 202 203 196 195 194 198 197 196 193 194 192 192 194 190 190 192 199 194 196 204 199 199 208 210 219 214 216 210 213 215 215 220 216 216 215 217 219 223 223 215 212 205 213 216 224 239 224 218 230 224 213 208 198 162 138 152 224 182 208 268 86 252 194 188 188 170 211 208 218 182 123 120 102 87 78
191 192 195 196 197 198 195 197 199 203 204 204 199 196 196 197 195 195 194 195 192 190 193 190 189 189 198 206 205 209 220 207 204 216 220 214 214 211 216 212 215 218 217 214 215 219 219 221 221 217 213 204 208 224 228 240 231 239 233 205 204 234 254 194 129 155 165 267 169 179 165 202 242 132 201 138 254 211 184 208 118 185 90 94 29
196 194 195 196 197 196 196 197 199 202 204 204 200 197 196 196 193 194 196 194 194 192 192 187 186 196 191 198 205 209 212 209 210 209 206 207 212 216 208 209 211 213 215 216 216 218 218 217 218 218 213 204 207 227 242 241 229 232 209 210 211 214 249 233 170 130 132 176 238 297 334 356 222 117 230 187 101 315 268 39 356 6 82 144 129
200 201 198 197 197 197 199 199 200 201 204 199 199 200 199 197 195 193 194 195 196 193 191 184 196 192 193 197 198 198 201 208 205 205 203 199 200 203 200 200 205 211 216 213 212 214 218 214 214 217 215 210 205 219 237 235 230 218 195 207 213 184 188 222 224 161 131 166 186 228 259 264 283 194 214 168 212 181 262 211 166 201 197 206 197
197 198 199 200 198 198 200 199 199 204 201 198 200 200 199 197 193 194 195 195 192 193 193 194 196 192 197 196 197 201 203 197 190 192 194 191 200 209 205 203 198 206 213 208 208 211 213 213 210 214 215 208 220 228 237 238 214 183 196 203 195 183 193 217 225 188 207 154 167 194 209 244 249 251 259 252 283 233 194 210 207 206 210 208 193
200 197 200 199 201 203 202 201 204 203 200 201 200 199 199 197 194 193 195 192 193 189 194 199 198 191 194 193 199 206 202 200 187 191 194 196 207 204 205 203 195 197 205 208 205 209 209 210 205 209 210 210 228 240 241 217 193 184 182 188 190 188 198 207 209 205 213 184 156 173 191 217 208 229 200 222 235 227 201 196 203 181 231 210 204
206 205 202 202 203 204 204 204 203 204 203 204 203 200 199 197 197 194 198 195 191 189 195 196 201 193 195 197 201 199 195 197 196 192 193 190 203 205 204 204 203 199 201 206 206 207 210 210 207 209 211 211 227 234 234 212 191 192 192 191 188 188 187 197 206 208 208 207 201 165 177 174 205 208 206 201 204 257 237 209 216 211 219 202 185
204 207 206 205 205 204 199 203 206 203 204 205 202 201 201 198 198 199 201 196 193 190 191 196 202 196 199 199 201 199 193 191 190 197 193 191 201 203 200 203 201 205 201 201 207 207 209 210 212 209 209 204 226 232 231 209 198 195 193 188 185 188 183 193 201 208 204 204 199 196 197 202 212 221 221 218 216 199 222 237 226 232 264 219 168
200 203 206 203 200 202 201 205 203 201 201 203 204 202 201 198 196 201 202 200 203 197 196 196 197 200 202 201 201 201 192 193 198 200 195 197 199 201 198 195 198 200 202 206 206 208 205 210 212 216 218 225 226 229 233 208 203 188 182 184 188 190 184 187 198 201 202 204 216 211 211 220 212 241 238 223 236 251 245 260 260 237 255 251 160
198 198 199 200 198 196 199 204 201 197 196 201 203 203 199 195 193 197 200 195 196 195 198 197 199 200 201 201 202 197 196 197 199 201 197 197 197 198 191 198 195 196 201 207 208 203 199 202 209 220 225 223 228 227 227 203 192 188 187 191 191 184 186 189 191 203 203 209 215 215 217 219 215 218 229 233 218 225 233 243 242 236 252 244 223
202 200 197 197 196 197 198 201 198 198 198 197 199 200 198 194 192 197 201 194 193 194 196 197 200 200 200 201 199 194 199 200 202 203 200 198 196 200 200 200 198 202 201 205 204 197 198 199 203 215 220 224 225 225 220 195 190 192 191 194 195 193 187 190 199 203 201 211 219 209 216 212 220 203 204 214 217 211 219 231 190 205 253 267 322
203 200 200 201 197 194 195 197 197 197 200 200 198 196 192 190 191 195 198 194 192 194 195 198 200 201 201 201 199 198 200 201 204 203 201 198 200 203 203 202 204 205 204 202 193 193 195 194 197 203 213 225 225 223 215 191 187 189 193 197 198 189 189 191 198 198 198 200 200 208 216 219 211 203 212 218 231 235 231 217 193 197 213 241 247
200 199 200 202 199 193 195 198 199 198 198 199 198 191 194 197 192 193 196 193 192 193 197 198 199 199 200 200 202 200 200 202 203 200 201 199 198 199 201 202 207 205 204 197 195 196 197 198 197 207 217 223 225 221 208 189 185 191 191 192 199 185 190 192 199 199 206 202 206 202 205 224 198 203 210 216 219 229 220 210 202 217 226 229 222
200 204 202 200 196 195 199 199 199 198 197 198 196 190 196 194 191 193 195 193 192 194 197 196 198 197 199 200 200 201 201 203 206 207 208 206 202 201 204 206 205 206 205 201 201 199 200 198 200 206 212 225 227 221 209 190 183 189 192 189 197 190 190 195 197 199 208 208 206 197 206 214 202 189 196 206 204 207 212 210 218 220 214 251 243
200 200 200 193 195 197 199 202 201 198 198 197 196 194 194 193 195 194 192 194 194 193 195 195 195 198 199 200 201 202 203 206 208 206 203 201 199 200 205 204 206 206 205 203 201 200 201 196 201 201 206 221 222 221 206 190 186 194 194 192 195 184 187 191 197 203 205 205 208 201 203 216 204 196 204 203 190 199 201 206 213 221 220 230 242
199 202 200 198 199 198 198 202 202 202 199 196 193 193 192 194 198 198 196 197 194 193 194 195 195 197 200 200 200 201 203 205 206 203 198 200 203 201 204 207 205 201 199 200 201 205 202 199 201 202 205 215 218 219 200 188 188 196 192 193 188 184 189 193 192 194 204 201 203 207 201 212 203 212 215 205 192 194 200 202 209 206 212 226 236
200 202 201 199 202 202 201 201 202 202 198 199 197 196 197 198 196 198 201 197 193 192 191 193 195 197 198 198 199 200 200 202 202 199 200 203 204 204 205 206 202 199 202 201 205 209 207 205 203 205 206 210 213 218 206 188 189 198 194 196 189 185 194 197 197 194 198 197 203 208 203 206 198 203 210 209 198 201 203 204 201 202 210 218 218
201 202 201 201 203 204 205 204 204 203 199 198 196 196 198 197 196 196 194 191 192 193 191 194 193 198 197 195 196 196 199 201 204 204 205 205 203 202 203 205 199 201 200 202 204 207 207 206 207 204 205 205 206 207 194 188 191 195 197 194 188 186 194 198 195 195 196 193 201 206 208 206 200 203 208 211 208 198 200 205 199 201 210 202 206
199 200 201 202 202 203 204 202 198 198 200 198 199 198 197 197 199 196 198 197 199 197 195 192 192 195 197 197 198 200 200 202 204 205 205 204 203 201 202 200 202 199 198 203 205 206 206 205 207 205 201 201 196 191 188 188 192 195 198 193 195 191 195 199 197 200 193 193 194 203 207 201 197 210 211 211 210 208 203 206 199 206 211 204 203
208 204 206 206 202 200 199 194 188 194 196 197 197 199 197 198 197 194 195 199 198 197 194 188 189 191 194 196 196 199 198 199 202 204 206 206 205 203 200 202 205 205 201 204 206 207 204 203 205 205 202 203 199 195 193 190 194 194 196 197 197 195 198 199 199 202 195 188 191 198 203 196 192 207 212 216 212 211 211 213 210 207 214 214 200
207 207 206 203 197 188 194 196 198 202 198 193 193 195 196 196 196 195 197 199 197 196 192 186 188 194 193 193 195 198 198 201 204 206 208 207 206 204 200 203 204 206 203 201 207 206 204 202 205 206 206 203 200 197 195 194 194 195 197 198 197 198 200 203 203 201 196 189 193 193 201 197 193 204 211 210 212 209 208 210 214 210 213 216 207
201 199 196 191 191 190 199 201 200 200 196 195 192 191 194 196 195 199 202 199 196 194 192 189 190 195 194 195 197 197 199 202 205 206 207 207 208 206 203 203 202 206 205 201 202 205 206 205 207 208 209 206 202 198 196 197 196 197 198 199 198 199 203 204 205 202 194 191 190 197 195 191 191 203 209 211 208 206 209 209 213 211 210 213 209
201 200 191 194 196 197 201 202 200 196 195 196 198 194 195 194 196 200 202 197 197 193 193 188 189 193 195 195 196 198 202 202 203 205 206 206 206 206 204 201 202 205 204 205 202 202 205 207 208 209 206 204 202 199 197 197 196 195 197 201 201 202 205 205 206 204 196 193 194 198 195 191 194 201 209 208 204 205 203 207 210 208 207 210 212
218 206 205 198 202 205 206 203 199 198 194 192 193 193 195 192 194 198 199 194 191 188 186 186 188 194 194 194 194 198 199 200 200 202 202 202 204 206 205 204 201 205 204 205 206 205 205 207 209 209 208 204 201 199 198 197 195 193 194 198 203 205 205 205 208 206 201 197 197 198 197 197 199 202 207 205 201 199 201 205 203 205 204 210 216
209 205 201 203 205 206 207 204 198 197 193 194 193 193 191 190 194 195 193 189 183 182 180 185 189 195 196 192 193 196 198 198 199 197 198 201 202 204 205 204 202 203 206 206 207 205 205 205 208 209 209 205 201 201 199 197 194 193 193 197 202 204 203 205 207 204 202 200 200 201 202 203 205 204 205 209 201 196 192 200 198 199 202 208 220
235 222 214 211 209 208 209 203 200 195 192 195 194 197 197 196 196 189 192 195 188 182 184 188 190 195 196 189 190 193 194 195 194 193 195 199 200 201 202 202 201 203 206 209 209 208 206 206 207 208 207 205 205 205 201 194 193 196 196 199 202 203 202 204 206 202 200 201 202 205 206 211 207 204 203 207 203 190 183 195 196 193 201 207 216
240 235 219 216 219 214 212 207 201 198 198 196 195 197 196 195 193 189 192 194 173 176 183 193 196 198 192 188 189 189 190 191 191 193 195 196 199 201 200 201 201 202 205 205 209 209 209 206 204 206 207 207 208 208 199 189 190 193 194 199 200 203 203 206 203 199 202 202 205 206 210 211 208 205 207 210 205 196 201 204 196 192 199 206 212
258 259 249 235 229 223 214 206 202 200 201 200 199 199 195 198 190 191 192 189 183 189 189 195 201 195 186 187 187 193 191 195 197 198 198 198 200 200 201 204 205 205 207 206 206 210 211 210 208 207 208 209 209 210 192 187 192 193 194 197 198 200 202 204 201 196 202 202 205 206 213 207 208 209 212 208 202 202 202 211 215 205 203 203 208
270 285 274 250 236 225 216 212 208 205 201 199 201 197 191 198 192 192 191 185 187 187 191 198 201 187 183 187 192 191 192 197 195 198 197 197 200 202 204 203 203 205 206 206 208 210 212 212 212 212 213 212 213 206 185 188 191 195 197 201 202 205 202 203 202 202 204 202 199 197 202 201 205 207 209 200 202 202 204 210 217 220 214 214 214
254 257 254 252 245 234 223 220 214 204 200 203 196 193 196 197 191 194 181 184 187 188 191 196 191 182 188 190 188 189 193 195 197 197 195 195 198 202 204 204 206 206 205 207 210 211 214 213 214 214 215 216 219 195 185 187 192 195 198 203 211 209 205 202 199 203 203 199 191 187 185 193 201 200 201 198 196 204 210 214 220 220 220 217 219
255 257 257 255 248 247 239 225 220 214 208 200 191 194 200 197 197 180 182 194 193 197 196 196 187 187 188 187 187 190 195 197 194 192 193 195 198 204 205 205 206 206 212 213 214 212 213 218 218 217 217 218 223 191 183 186 192 193 196 199 215 210 209 202 199 201 202 196 187 176 181 192 197 194 198 200 201 207 207 211 220 225 225 219 218
253 257 262 260 258 254 249 243 232 223 207 181 193 200 188 179 170 179 188 191 195 197 199 197 192 191 186 187 190 193 196 193 190 190 193 198 200 203 203 204 206 209 213 216 217 215 219 222 220 224 222 219 224 185 181 186 191 192 195 197 212 216 211 205 201 203 199 190 183 180 185 189 188 192 196 193 199 203 208 218 224 224 226 229 220
277 282 279 272 270 264 256 246 232 206 203 194 195 190 186 179 170 178 181 189 191 195 197 189 189 189 192 192 191 194 195 193 192 192 196 200 202 202 202 200 204 211 218 220 216 215 218 222 220 225 225 225 224 181 181 183 188 192 190 198 212 216 220 211 203 206 200 191 183 185 188 190 187 195 194 189 197 202 206 217 221 224 225 225 226
303 301 295 289 277 264 259 249 218 200 196 194 188 181 178 166 176 184 182 186 186 192 194 190 192 189 188 187 191 194 193 193 192 195 200 201 201 202 201 197 203 207 208 210 215 218 220 220 218 225 223 226 231 177 179 180 185 186 182 203 208 217 224 222 213 209 202 193 186 187 194 198 187 199 186 184 195 196 209 218 217 218 220 221 223
320 319 309 306 296 272 245 230 198 191 190 172 171 174 167 166 176 174 179 189 193 201 197 190 191 183 183 190 191 189 189 192 195 200 202 202 203 203 202 196 202 205 209 213 216 217 221 223 216 221 219 221 226 178 178 177 182 181 186 197 202 213 225 224 225 219 214 203 203 183 196 194 190 196 170 184 191 191 209 210 211 214 213 217 217
355 339 338 345 349 344 147 148 167 177 176 167 166 167 172 178 179 180 184 190 198 201 193 191 186 183 192 194 188 191 194 195 201 204 202 202 202 203 201 197 206 211 214 210 210 213 215 213 216 218 208 209 218 196 175 178 183 181 187 195 198 212 224 224 223 223 218 215 210 188 191 197 195 185 169 185 188 190 207 206 206 211 211 214 214
14 19 13 13 9 51 56 55 51 20 353 180 169 173 181 177 178 179 188 199 203 194 182 181 189 196 196 192 194 193 194 199 204 203 200 204 201 201 203 203 206 210 212 213 215 217 215 212 209 210 205 204 208 199 176 179 182 180 184 190 201 209 221 221 219 219 210 209 206 206 194 198 191 176 175 183 187 193 201 203 201 207 208 209 194
20 22 33 57 54 58 62 54 43 21 100 163 173 174 178 175 168 181 197 202 192 179 180 189 190 194 196 195 196 198 201 205 206 203 202 204 205 207 206 206 208 210 216 218 218 222 223 226 224 220 214 206 204 197 176 178 179 180 185 187 203 203 212 216 216 207 210 205 203 207 207 193 189 178 178 186 187 193 200 199 200 203 205 197 177
47 42 57 74 71 65 63 56 47 35 65 136 156 169 164 152 168 190 200 195 172 179 189 192 190 194 198 199 202 202 203 205 203 198 199 203 207 208 209 211 212 213 216 221 222 224 225 222 224 232 235 230 215 201 172 181 179 182 183 190 196 200 194 208 211 208 204 204 203 202 209 187 186 178 182 188 190 189 194 198 194 194 175 140 168
59 57 62 80 77 65 56 50 42 38 30 61 134 118 122 135 144 95 63 158 187 193 187 195 196 201 202 204 204 203 203 203 203 200 199 204 203 205 208 209 210 214 219 224 225 226 229 231 231 226 227 222 219 200 186 182 186 182 185 189 194 193 185 191 203 204 202 201 204 196 197 169 179 178 183 189 188 186 180 197 184 170 155 162 169
70 66 72 75 76 69 62 52 50 45 45 38 62 93 99 100 73 28 4 354 193 192 192 196 199 204 207 208 209 207 207 208 206 201 205 210 208 208 210 211 215 212 220 223 225 225 225 226 225 224 220 207 208 206 184 184 188 190 188 189 193 194 184 196 195 195 201 202 194 193 178 163 175 179 183 183 179 171 182 187 164 162 158 159 181
77 78 80 79 79 75 66 55 48 49 49 51 58 77 80 72 49 41 40 35 10 228 197 201 204 208 209 212 211 210 209 209 209 203 210 214 216 211 216 224 222 223 227 228 229 228 224 224 222 222 223 213 206 196 168 185 185 191 195 193 193 195 189 185 188 190 169 175 176 164 150 164 172 178 178 166 163 175 180 168 165 164 157 180 189
80 80 83 89 87 83 78 72 59 50 50 50 52 57 62 52 46 46 46 42 55 53 214 226 220 216 213 211 217 219 219 216 214 213 216 216 217 216 221 221 224 226 227 228 228 224 225 226 228 226 222 221 208 188 174 176 185 187 192 199 199 198 191 187 189 180 174 162 154 151 157 162 165 160 151 157 172 173 172 164 161 161 176 185 184
69 73 88 91 90 86 81 79 72 62 61 59 57 55 51 45 39 36 36 39 53 56 68 77 261 257 249 237 233 229 224 221 218 222 222 222 221 225 228 227 226 229 226 227 230 224 228 233 232 235 232 223 212 195 173 168 172 187 188 193 197 200 196 187 184 160 150 145 149 152 154 153 145 155 153 145 133 131 141 149 160 171 184 188 179
73 78 81 80 80 78 77 74 72 70 71 69 67 63 59 58 56 49 46 48 50 48 55 51 45 40 274 256 249 266 266 251 237 227 229 227 230 230 231 233 231 227 229 228 228 230 227 230 232 235 235 221 212 207 193 177 186 180 181 174 188 183 181 183 179 157 147 143 136 132 129 126 127 135 143 149 150 158 161 165 173 182 187 190 185
78 73 75 80 84 84 80 76 73 71 69 67 64 62 59 57 54 51 52 59 60 60 61 61 57 53 45 32 15 333 274 258 254 253 249 249 244 243 241 242 234 232 228 230 234 234 230 231 228 235 229 202 200 197 201 190 181 179 174 170 192 196 180 178 172 152 142 131 127 139 141 140 144 153 157 159 160 160 163 165 165 171 181 182 171
85 87 89 88 87 87 86 82 79 76 74 71 69 67 62 56 55 56 60 66 69 68 67 63 58 57 58 68 69 68 54 40 13 349 340 327 341 334 317 294 277 273 266 253 246 242 240 236 236 230 225 222 210 203 200 171 171 172 177 180 189 199 183 171 148 146 146 145 148 151 150 153 158 163 166 165 166 165 159 157 158 169 174 176 181
86 87 83 83 82 81 78 73 68 67 65 65 63 61 58 54 54 59 65 72 79 82 76 67 62 55 37 42 64 73 89 89 131 301 268 298 296 294 293 286 269 270 272 282 287 291 295 289 267 241 227 221 221 209 176 175 178 179 182 180 175 169 165 151 150 150 151 156 158 156 157 159 165 167 168 168 164 162 158 153 158 168 180 174 177